Location: Newark
(49.3000°N, 9.4667°E)
Time: 03:11:42
(UTC+00:00)

Transit 2A Rocket - Visible Passes

Search period start: 23 October 2019 00:00
Search period end: 02 November 2019 00:00
Orbit: 594 x 909 km, 66.7° (Epoch: 22 October)

Date Brightness Start Highest point End Pass type
(mag) Time Alt. Az. Time Alt. Az. Time Alt. Az.
23 Oct 6.2 03:08:09 25° SSE 03:09:59 34° ESE 03:14:12 10° NE visible
23 Oct 5.2 04:48:08 12° WSW 04:52:29 42° NW 04:56:50 10° NNE visible
24 Oct 6.9 02:27:40 21° ESE 02:27:40 21° ESE 02:31:09 10° ENE visible
24 Oct 4.7 04:07:38 31° SW 04:09:51 66° NW 04:14:25 10° NNE visible
25 Oct 7.8 01:47:00 10° E 01:47:00 10° E 01:47:14 10° E visible
25 Oct 4.7 03:26:57 72° S 03:27:19 78° ESE 03:31:55 10° NE visible
25 Oct 6.0 05:06:54 11° W 05:10:19 23° NW 05:13:55 10° NNE visible
26 Oct 6.1 02:46:09 37° ENE 02:46:09 37° ENE 02:49:17 10° NE visible
26 Oct 5.5 04:26:05 27° WNW 04:27:32 32° NW 04:31:37 10° NNE visible
27 Oct 7.4 02:05:14 16° ENE 02:05:14 16° ENE 02:06:26 10° NE visible
27 Oct 5.0 03:45:10 47° NW 03:45:10 47° NW 03:49:16 10° NNE visible
27 Oct 6.6 05:26:03 10° WNW 05:28:26 14° NNW 05:30:46 10° N visible
28 Oct 5.9 03:04:09 36° NNE 03:04:09 36° NNE 03:06:49 10° NE visible
28 Oct 6.3 04:44:05 16° NW 04:45:29 18° NNW 04:48:38 10° NNE visible
29 Oct 7.2 02:23:04 18° NE 02:23:04 18° NE 02:24:17 10° NE visible
29 Oct 6.0 04:03:00 25° NNW 04:03:00 25° NNW 04:06:23 10° NNE visible
30 Oct 6.3 03:21:51 25° N 03:21:51 25° N 03:24:04 10° NNE visible
30 Oct 6.8 05:02:05 10° NW 05:03:42 12° NNW 05:05:18 10° N visible
31 Oct 7.1 02:40:40 17° NNE 02:40:40 17° NNE 02:41:41 10° NNE visible
31 Oct 6.5 04:20:35 15° NNW 04:20:41 15° NNW 04:23:18 10° N visible
01 Nov 6.6 03:39:21 17° N 03:39:21 17° N 03:41:07 10° NNE visible
